Barquisimeto, Venezuela

5:41 AM -04 on July 25, 2017 (GMT -0400)
Barquisimeto

Weather History for SVBM - October, 2013

Change the Weather History Date:

Tuesday, October 29, 2013

  Actual Average Record
Temperature  
Mean Temperature 78 °F -  
Max Temperature 90 °F 85 °F 91 °F (2005)
Min Temperature 66 °F 68 °F 66 °F (2013)
Cooling Degree Days 13    
Growing Degree Days 28 (Base 50)    
Moisture  
Dew Point 69 °F    
Average Humidity 76    
Maximum Humidity 100    
Minimum Humidity 41    
Precipitation  
Precipitation 0.04 in - - ()
Sea Level Pressure  
Sea Level Pressure 29.93 in    
Wind  
Wind Speed 5 mph ()    
Max Wind Speed 14 mph    
Max Gust Speed -    
Visibility 6.4 miles    
Events      
Averages and records for this station are not official NWS values.
T = Trace of Precipitation, MM = Missing Value Source: Averaged Metar Reports

Daily Weather History Graph

Daily Weather History Graph

Search for Another Location

Airport or City:

Trip Planner

Search our weather history database for the weather conditions in past years. The results will help you decide how hot, cold, wet, or windy it might be!

Date:

Astronomy

Oct. 29, 2013 Rise Set
Actual Time 5:57 AM -0430 5:44 PM -0430
Civil Twilight 5:35 AM -0430 6:06 PM -0430
Nautical Twilight 5:10 AM -0430 6:30 PM -0430
Astronomical Twilight 4:45 AM -0430 6:55 PM -0430
Moon 1:38 AM -0430 (10/29) 2:07 PM -0430 (10/29)
Length of Visible Light 12h 30m
Length of Day
11h 47m
Waning Crescent, 25% of the Moon is Illuminated
Oct 29
Waning Crescent
Nov 3
New
Nov 10
First Quarter
Nov 17
Full
Nov 25
Last Quarter

Hourly Weather History & Observations

Time (-0430) Temp. Heat Index Dew Point Humidity Pressure Visibility Wind Dir Wind Speed Gust Speed Precip Events Conditions
1:30 AM 68 °F - 66 °F 91% 29.87 in 6 mi SSE 4.5 mph - -   Scattered Clouds
1:30 AM 68.0 °F - 66.2 °F 94% 29.98 in 6.2 mi SSE 3.5 mph - N/A   Partly Cloudy
4:30 AM 66.2 °F - 64.4 °F 94% 29.95 in 6.2 mi SSE 1.2 mph - N/A   Partly Cloudy
5:30 AM 66.2 °F - 64.4 °F 94% 29.95 in 6.2 mi ESE 2.3 mph - N/A   Partly Cloudy
6:30 AM 66.2 °F - 66.2 °F 100% 29.98 in 6.2 mi SE 2.3 mph - N/A   Partly Cloudy
7:30 AM 73 °F - 68 °F 80% 29.90 in 12 mi WSW 4.5 mph - -   Scattered Clouds
7:30 AM 73.4 °F - - N/A% 29.98 in 6.2 mi WSW 3.5 mph - N/A   Mostly Cloudy
8:30 AM 77.0 °F - 71.6 °F 83% 30.01 in 6.2 mi Calm Calm - N/A   Partly Cloudy
9:30 AM 80.6 °F 86.2 °F 75.2 °F 84% 30.01 in 6.2 mi ESE 2.3 mph - N/A   Partly Cloudy
10:30 AM 84.2 °F 90.9 °F 73.4 °F 70% 30.01 in 6.2 mi ESE 6.9 mph - N/A   Mostly Cloudy
11:30 AM 84.2 °F 90.9 °F 73.4 °F 70% 30.01 in 6.2 mi ESE 10.4 mph - N/A   Mostly Cloudy
12:30 PM 86.0 °F 91.8 °F 71.6 °F 62% 29.98 in 6.2 mi ESE 9.2 mph - N/A   Mostly Cloudy
1:30 PM 89 °F - 68 °F 41% 29.84 in 12 mi ESE 8.9 mph - -   Scattered Clouds
1:30 PM 87.8 °F 91.4 °F 68.0 °F 52% 29.95 in 6.2 mi ESE 9.2 mph - N/A   Mostly Cloudy
2:30 PM 87.8 °F 91.4 °F 68.0 °F 52% 29.92 in 6.2 mi ESE 12.7 mph - N/A   Mostly Cloudy
3:30 PM 89.6 °F 94.7 °F 69.8 °F 52% 29.89 in 6.2 mi East 6.9 mph - N/A   Mostly Cloudy
4:30 PM 89.6 °F 92.2 °F 66.2 °F 46% 29.86 in 6.2 mi ESE 12.7 mph - N/A   Mostly Cloudy
5:30 PM 84.2 °F 88.4 °F 69.8 °F 62% 29.86 in 6.2 mi ESE 13.8 mph - N/A   Scattered Clouds
5:34 PM - - - N/A% - 2.5 mi ESE 9.2 mph - N/A   Mostly Cloudy
5:46 PM - - - N/A% - 3.7 mi ESE 6.9 mph - N/A   Drizzle
6:30 PM 77.0 °F - 69.8 °F 78% 29.89 in 6.2 mi Calm Calm - N/A   Mostly Cloudy
7:30 PM 76 °F - 71 °F 80% 29.81 in 6 mi ESE 2.3 mph - -   Partly Cloudy
7:30 PM 75.2 °F - 71.6 °F 89% 29.89 in 6.2 mi ESE 4.6 mph - N/A   Partly Cloudy
8:30 PM 73.4 °F - 71.6 °F 94% 29.92 in 6.2 mi ESE 8.1 mph - N/A   Partly Cloudy
9:30 PM 73.4 °F - 71.6 °F 94% 29.95 in 6.2 mi East 4.6 mph - N/A   Partly Cloudy
10:30 PM 73.4 °F - 71.6 °F 94% 29.98 in 6.2 mi NE 5.8 mph - N/A   Scattered Clouds